Weather History for New Orleans Lakefront, LA

Change the Weather History Date:

Friday, February 15, 2013

  Actual Average Record
Temperature  
Mean Temperature 53 °F 57 °F  
Max Temperature 64 °F 65 °F 82 °F (2001)
Min Temperature 42 °F 48 °F 29 °F (1960)
Degree Days  
Heating Degree Days 12 9  
Month to date heating degree days 92 153  
Since 1 July heating degree days 777 1009  
Cooling Degree Days 0 1  
Month to date cooling degree days 7 15  
Year to date cooling degree days 32 31  
Growing Degree Days 6 (Base 50)    
Moisture  
Dew Point 43 °F    
Average Humidity 66    
Maximum Humidity 93    
Minimum Humidity 39    
Precipitation  
Precipitation 0.00 in 0.21 in 3.32 in (1956)
Month to date precipitation 3.21 2.97  
Year to date precipitation 9.80 8.12  
Snow  
Snow 0.00 in - - ()
Month to date snowfall 0.0  
Since 1 July snowfall 0.0  
Snow Depth 0.00 in    
Sea Level Pressure  
Sea Level Pressure 30.12 in    
Wind  
Wind Speed 5 mph (NW)    
Max Wind Speed 20 mph    
Max Gust Speed 26 mph    
Visibility 9 miles    
Events      
T = Trace of Precipitation, MM = Missing Value Source: NWS Daily Summary

Daily Weather History Graph

Daily Weather History Graph

Search for Another Location

Airport:

Trip Planner

Search our weather history database for the weather conditions in past years. The results will help you decide how hot, cold, wet, or windy it might be!

Date:

Astronomy

Feb. 15, 2013 Rise Set
Actual Time 6:39 AM CST 5:49 PM CST
Civil Twilight 6:15 AM CST 6:13 PM CST
Nautical Twilight 5:47 AM CST 6:41 PM CST
Astronomical Twilight 5:19 AM CST 7:09 PM CST
Moon 9:44 AM CST (2/15) 11:19 PM CST (2/15)
Length of Visible Light 11h 58m
Length of Day
11h 09m
Waxing Crescent, 30% of the Moon is Illuminated
Feb 15
Waxing Crescent
Feb 17
First Quarter
Feb 25
Full
Mar 4
Last Quarter
Mar 11
New

Hourly Weather History & Observations

Time (CST) Temp. Dew Point Humidity Pressure Visibility Wind Dir Wind Speed Gust Speed Precip Events Conditions
12:53 AM 51.1 °F 39.9 °F 66% 30.09 in 8.0 mi Calm Calm - N/A   Clear
1:53 AM 51.1 °F 41.0 °F 68% 30.10 in 7.0 mi Calm Calm - N/A   Clear
2:53 AM 50.0 °F 41.0 °F 71% 30.10 in 8.0 mi Calm Calm - N/A   Clear
3:53 AM 50.0 °F 41.0 °F 71% 30.09 in 8.0 mi SSW 3.5 mph - N/A   Clear
4:53 AM 48.9 °F 39.9 °F 71% 30.11 in 8.0 mi SSW 3.5 mph - N/A   Clear
5:53 AM 50.0 °F 42.1 °F 74% 30.13 in 10.0 mi Calm Calm - N/A   Clear
6:53 AM 52.0 °F 46.0 °F 80% 30.14 in 6.0 mi East 3.5 mph - N/A   Haze
7:53 AM 55.9 °F 48.0 °F 75% 30.16 in 7.0 mi East 4.6 mph - N/A   Clear
8:53 AM 59.0 °F 46.9 °F 64% 30.18 in 10.0 mi North 3.5 mph - N/A   Clear
9:53 AM 61.0 °F 46.0 °F 58% 30.17 in 10.0 mi NNE 4.6 mph - N/A   Clear
10:53 AM 62.1 °F 44.1 °F 52% 30.17 in 10.0 mi North 4.6 mph - N/A   Clear
11:53 AM 64.0 °F 42.1 °F 45% 30.15 in 10.0 mi NNW 3.5 mph - N/A   Clear
12:53 PM 62.1 °F 39.9 °F 44% 30.13 in 10.0 mi West 3.5 mph - N/A   Clear
1:53 PM 63.0 °F 39.0 °F 41% 30.09 in 10.0 mi WSW 4.6 mph - N/A   Clear
2:53 PM 64.0 °F 41.0 °F 43% 30.08 in 10.0 mi West 5.8 mph - N/A   Clear
3:53 PM 64.9 °F 39.9 °F 40% 30.08 in 10.0 mi West 8.1 mph - N/A   Clear
4:53 PM 64.9 °F 41.0 °F 42% 30.07 in 10.0 mi West 8.1 mph - N/A   Clear
5:53 PM 64.0 °F 45.0 °F 50% 30.07 in 10.0 mi West 6.9 mph - N/A   Clear
6:53 PM 63.0 °F 46.9 °F 56% 30.08 in 10.0 mi West 5.8 mph - N/A   Clear
7:53 PM 63.0 °F 50.0 °F 63% 30.09 in 10.0 mi West 6.9 mph - N/A   Clear
8:53 PM 63.0 °F 46.9 °F 56% 30.11 in 10.0 mi NNW 13.8 mph - N/A   Clear
9:53 PM 60.1 °F 43.0 °F 53% 30.14 in 10.0 mi North 21.9 mph 28.8 mph N/A   Clear
10:53 PM 57.9 °F 42.1 °F 56% 30.15 in 10.0 mi North 21.9 mph 29.9 mph N/A   Clear
11:53 PM 57.0 °F 41.0 °F 55% 30.15 in 10.0 mi North 21.9 mph 27.6 mph N/A   Clear